GW2426 Weather Reports


time (UTC)temp
C
wind
direction
speed
KPH
gust
KPH
rain 1hr
cm
rain 24hr
cm
rain mn
cm
humidity
%
barometer
mb
20260906234908 16 34 0.0 0.0 0.00 0.00 0.00 79 963.1
20260906234407 16 17 0.0 1.6 0.00 0.00 0.00 79 963.1
20260906233903 16 94 3.2 3.2 0.00 0.00 0.00 78 963.2
20260906233401 16 40 1.6 1.6 0.00 0.00 0.00 78 963.2
20260906232856 17 83 0.0 1.6 0.00 0.00 0.00 78 963.2
20260906232355 17 105 0.0 0.0 0.00 0.00 0.00 78 963.4
20260906231850 17 18 0.0 0.0 0.00 0.00 0.00 77 963.2
20260906231346 17 100 1.6 1.6 0.00 0.00 0.00 78 963.4
20260906230845 17 2 0.0 0.0 0.00 0.00 0.00 80 963.3
20260906230340 17 23 0.0 0.0 0.00 0.00 0.00 81 963.4
20260906225833 16 44 0.0 0.0 0.00 0.00 0.00 83 963.5
20260906225328 16 26 0.0 1.6 0.00 0.00 0.00 84 963.5
20260906224823 16 32 0.0 0.0 0.00 0.00 0.00 86 963.5
20260906224314 15 0 0.0 0.0 0.00 0.00 0.00 85 963.7
20260906223810 15 33 0.0 0.0 0.00 0.00 0.00 86 963.7
20260906223306 15 34 0.0 0.0 0.00 0.00 0.00 86 963.9
20260906222804 15 28 0.0 1.6 0.00 0.00 0.00 87 963.8
20260906222306 15 104 0.0 0.0 0.00 0.00 0.00 87 963.7
20260906221801 15 77 0.0 0.0 0.00 0.00 0.00 88 963.6
20260906221255 15 51 3.2 3.2 0.00 0.00 0.00 88 963.7
20260906220751 15 21 0.0 1.6 0.00 0.00 0.00 89 963.9
20260906220246 15 20 0.0 0.0 0.00 0.00 0.00 89 963.8
20260906215745 15 17 0.0 0.0 0.00 0.00 0.00 89 963.6
20260906215244 15 57 0.0 0.0 0.00 0.00 0.00 89 963.9
20260906214742 15 55 0.0 0.0 0.00 0.00 0.00 90 963.9
20260906214233 15 28 0.0 0.0 0.00 0.00 0.00 91 964.1
20260906213731 15 27 0.0 0.0 0.00 0.00 0.00 92 963.8
20260906213226 15 29 0.0 1.6 0.00 0.00 0.00 94 963.8
20260906212722 14 30 0.0 0.0 0.00 0.00 0.00 94 963.9
20260906212218 14 50 0.0 1.6 0.00 0.00 0.00 94 964.1
20260906211713 14 36 0.0 0.0 0.00 0.00 0.00 93 963.9
20260906211209 15 31 1.6 1.6 0.00 0.00 0.00 92 963.8
20260906210704 15 8 1.6 1.6 0.00 0.00 0.00 91 964.0
20260906210203 15 61 0.0 1.6 0.00 0.00 0.00 88 964.0
20260906205658 15 28 0.0 0.0 0.00 0.00 0.00 87 964.1
20260906205154 15 29 0.0 0.0 0.00 0.00 0.00 86 964.0
20260906204649 15 17 1.6 1.6 0.00 0.00 0.00 86 964.1
20260906204149 15 75 0.0 0.0 0.00 0.00 0.00 86 964.1
20260906203648 15 27 0.0 0.0 0.00 0.00 0.00 86 964.1
20260906203143 15 68 0.0 1.6 0.00 0.00 0.00 85 964.2
20260906202641 15 34 0.0 0.0 0.00 0.00 0.00 85 964.2
20260906202139 15 62 1.6 3.2 0.00 0.00 0.00 84 964.3
20260906201635 15 49 0.0 0.0 0.00 0.00 0.00 84 964.3
20260906201133 15 30 0.0 0.0 0.00 0.00 0.00 84 964.3
20260906200630 15 68 0.0 0.0 0.00 0.00 0.00 83 964.3
20260906200126 15 45 0.0 0.0 0.00 0.00 0.00 83 964.1
20260906195621 15 30 0.0 0.0 0.00 0.00 0.00 83 964.3
20260906195118 15 68 0.0 0.0 0.00 0.00 0.00 82 964.4
20260906194614 15 31 0.0 0.0 0.00 0.00 0.00 83 964.3
20260906194108 15 55 1.6 1.6 0.00 0.00 0.00 81 964.5
20260906193603 15 52 0.0 0.0 0.00 0.00 0.00 81 964.5
20260906193058 15 33 0.0 1.6 0.00 0.00 0.00 81 964.5
20260906192554 15 124 1.6 1.6 0.00 0.00 0.00 81 964.4
20260906192053 15 348 0.0 1.6 0.00 0.00 0.00 81 964.4
20260906191548 15 31 0.0 0.0 0.00 0.00 0.00 82 964.7
20260906191047 15 36 0.0 0.0 0.00 0.00 0.00 81 964.6
20260906190546 15 79 3.2 4.8 0.00 0.00 0.00 81 964.7
20260906190041 15 39 0.0 0.0 0.00 0.00 0.00 82 964.6
20260906185541 15 21 0.0 1.6 0.00 0.00 0.00 82 964.8
20260906185040 15 88 0.0 1.6 0.00 0.00 0.00 82 964.6
20260906184535 15 5 0.0 0.0 0.00 0.00 0.00 82 964.9
20260906184030 16 58 0.0 1.6 0.00 0.00 0.00 81 964.7
20260906183527 15 56 0.0 0.0 0.00 0.00 0.00 81 964.8
20260906183022 15 166 0.0 0.0 0.00 0.00 0.00 82 964.8
20260906182517 15 114 1.6 3.2 0.00 0.00 0.00 82 964.8
20260906182013 15 38 0.0 1.6 0.00 0.00 0.00 82 964.8
20260906181508 15 70 0.0 0.0 0.00 0.00 0.00 83 964.8
20260906181004 15 18 1.6 1.6 0.00 0.00 0.00 82 964.8
20260906180459 15 28 0.0 1.6 0.00 0.00 0.00 82 965.0
20260906175956 15 22 1.6 1.6 0.00 0.00 0.00 82 964.9
20260906175451 15 53 0.0 1.6 0.00 0.00 0.00 81 965.0
20260906174949 15 31 0.0 0.0 0.00 0.00 0.00 82 964.9
20260906174443 15 26 1.6 1.6 0.00 0.00 0.00 81 964.9
20260906173939 16 18 0.0 0.0 0.00 0.00 0.00 82 965.1
20260906173434 16 15 0.0 1.6 0.00 0.00 0.00 80 964.8
20260906172933 16 28 1.6 1.6 0.00 0.00 0.00 80 965.0
20260906172430 16 32 0.0 1.6 0.00 0.00 0.00 79 964.9
20260906171925 16 13 0.0 1.6 0.00 0.00 0.00 79 964.9
20260906171419 16 31 0.0 0.0 0.00 0.00 0.00 78 964.9
20260906170915 16 91 3.2 3.2 0.00 0.00 0.00 77 964.6
20260906170411 16 31 0.0 0.0 0.00 0.00 0.00 79 964.8
20260906165908 15 62 0.0 0.0 0.00 0.00 0.00 82 964.8
20260906165407 15 196 4.8 4.8 0.00 0.00 0.00 81 964.9
20260906164902 15 135 1.6 3.2 0.00 0.00 0.00 82 964.8
20260906164401 15 40 3.2 4.8 0.00 0.00 0.00 83 964.9
20260906163857 15 18 4.8 8.0 0.00 0.00 0.00 82 965.1
20260906163353 15 32 0.0 0.0 0.00 0.00 0.00 84 965.0
20260906162850 15 93 0.0 0.0 0.00 0.00 0.00 84 965.2
20260906162348 15 50 0.0 1.6 0.00 0.00 0.00 85 965.2
20260906161839 15 51 0.0 0.0 0.00 0.00 0.00 86 965.1
20260906161338 14 353 0.0 1.6 0.00 0.00 0.00 86 965.2
20260906160837 14 22 0.0 0.0 0.00 0.00 0.00 87 965.2
20260906160331 14 53 0.0 1.6 0.00 0.00 0.00 87 965.2
20260906155829 15 36 0.0 0.0 0.00 0.00 0.00 88 965.1
20260906155324 14 25 0.0 0.0 0.00 0.00 0.00 88 965.2
20260906154820 14 20 0.0 0.0 0.00 0.00 0.00 88 965.2
20260906154314 14 61 0.0 0.0 0.00 0.00 0.00 89 965.2
20260906153813 14 36 0.0 0.0 0.00 0.00 0.00 89 965.0
20260906153312 14 61 1.6 1.6 0.00 0.00 0.00 88 965.2
20260906152808 14 77 0.0 1.6 0.00 0.00 0.00 89 965.4
20260906152306 13 26 0.0 0.0 0.00 0.00 0.00 90 965.4
20260906151802 13 29 0.0 0.0 0.00 0.00 0.00 91 965.3
20260906151258 13 49 0.0 0.0 0.00 0.00 0.00 91 965.5
20260906150753 13 47 0.0 0.0 0.00 0.00 0.00 92 965.3
20260906150249 13 27 0.0 0.0 0.00 0.00 0.00 94 965.6
20260906145747 12 35 0.0 0.0 0.00 0.00 0.00 94 965.7
20260906145246 12 39 0.0 0.0 0.00 0.00 0.00 94 965.6
20260906144742 12 60 1.6 3.2 0.00 0.00 0.00 95 965.7
20260906144236 12 35 0.0 0.0 0.00 0.00 0.00 96 965.7
20260906143736 12 31 0.0 0.0 0.00 0.00 0.00 96 965.7
20260906143233 12 29 0.0 0.0 0.00 0.00 0.00 96 965.7
20260906142732 12 40 0.0 0.0 0.00 0.00 0.00 97 965.7
20260906142228 12 34 0.0 0.0 0.00 0.00 0.00 97 965.6
20260906141726 12 60 0.0 0.0 0.00 0.00 0.00 98 965.7
20260906141222 12 28 0.0 0.0 0.00 0.00 0.00 98 965.7
20260906140721 12 26 0.0 0.0 0.00 0.00 0.00 98 965.9
20260906140216 12 61 0.0 0.0 0.00 0.00 0.00 98 965.9
20260906135713 12 25 0.0 0.0 0.00 0.00 0.00 98 965.8
20260906135209 12 28 0.0 0.0 0.00 0.00 0.00 98 965.7
20260906134704 12 28 0.0 0.0 0.00 0.00 0.00 98 965.8
20260906134159 12 21 0.0 0.0 0.00 0.00 0.00 98 965.8
20260906133655 12 27 0.0 0.0 0.00 0.00 0.00 98 965.7
20260906133150 12 16 0.0 0.0 0.00 0.00 0.00 98 966.0
20260906132645 12 38 0.0 0.0 0.00 0.00 0.00 98 966.0
20260906132141 11 27 0.0 0.0 0.00 0.00 0.00 98 966.0
20260906131636 11 40 0.0 0.0 0.00 0.00 0.00 98 966.3
20260906131131 11 25 0.0 0.0 0.00 0.00 0.00 98 966.3
20260906130626 11 41 0.0 0.0 0.00 0.00 0.00 98 966.4
20260906130121 11 32 0.0 0.0 0.00 0.00 0.00 98 966.3
20260906125613 11 34 0.0 0.0 0.00 0.00 0.00 98 966.4
20260906125112 11 33 0.0 0.0 0.00 0.00 0.00 98 966.2
20260906124608 11 41 0.0 0.0 0.00 0.00 0.00 98 966.2
20260906124103 11 22 0.0 0.0 0.00 0.00 0.00 98 966.1
20260906123602 11 25 0.0 0.0 0.00 0.00 0.00 98 966.1
20260906123057 11 28 0.0 0.0 0.00 0.00 0.00 98 965.7
20260906122556 11 28 0.0 0.0 0.00 0.00 0.00 98 965.8
20260906122052 11 28 0.0 0.0 0.00 0.00 0.00 98 966.0
20260906121548 11 30 0.0 0.0 0.00 0.00 0.00 98 966.2
20260906121045 11 33 0.0 0.0 0.00 0.00 0.00 98 966.0
20260906120540 11 34 0.0 0.0 0.00 0.00 0.00 98 965.8
20260906120037 11 30 0.0 0.0 0.00 0.00 0.00 98 965.8
20260906115537 11 30 0.0 0.0 0.00 0.00 0.00 98 965.9
20260906115032 11 23 0.0 0.0 0.00 0.00 0.00 98 965.9
20260906114526 11 26 0.0 0.0 0.00 0.00 0.00 98 965.9
20260906114022 11 24 0.0 0.0 0.00 0.00 0.00 98 965.9
20260906113520 11 30 0.0 0.0 0.00 0.00 0.00 98 965.9
20260906113016 11 28 0.0 0.0 0.00 0.00 0.00 98 965.9
20260906112511 11 25 0.0 0.0 0.00 0.00 0.00 98 966.1
20260906112007 11 17 0.0 0.0 0.00 0.00 0.00 98 966.3
20260906111501 11 35 0.0 0.0 0.00 0.00 0.00 98 966.2
20260906110956 11 21 0.0 0.0 0.00 0.00 0.00 99 966.3
20260906110450 11 36 0.0 0.0 0.00 0.00 0.00 99 966.4
20260906105949 11 24 0.0 0.0 0.00 0.00 0.00 99 966.5
20260906105445 11 19 0.0 0.0 0.00 0.00 0.00 99 966.4
20260906104942 11 29 0.0 0.0 0.00 0.00 0.00 99 966.7
20260906104440 11 33 0.0 0.0 0.00 0.00 0.00 99 966.7
20260906103939 11 28 0.0 0.0 0.00 0.00 0.00 99 966.5
20260906103437 11 33 0.0 0.0 0.00 0.00 0.00 99 966.7
20260906102933 11 32 0.0 0.0 0.00 0.00 0.00 99 966.6
20260906102433 11 42 0.0 0.0 0.00 0.00 0.00 98 966.7
20260906101927 11 30 0.0 0.0 0.00 0.00 0.00 98 966.8
20260906101423 11 34 0.0 0.0 0.00 0.00 0.00 98 966.7
20260906100918 11 41 0.0 0.0 0.00 0.00 0.00 98 966.9
20260906100418 11 41 0.0 0.0 0.00 0.00 0.00 98 966.7
20260906095912 11 29 0.0 0.0 0.00 0.00 0.00 98 966.6
20260906095408 11 41 0.0 0.0 0.00 0.00 0.00 98 966.7
20260906094908 11 25 0.0 0.0 0.00 0.00 0.00 98 966.8
20260906094403 11 40 0.0 0.0 0.00 0.00 0.00 98 966.8
20260906093859 11 28 0.0 0.0 0.00 0.00 0.00 97 966.8
20260906093355 11 30 0.0 0.0 0.00 0.00 0.00 97 967.0
20260906092849 11 29 0.0 0.0 0.00 0.00 0.00 97 967.0
20260906092344 11 19 0.0 0.0 0.00 0.00 0.00 97 967.0
20260906091839 11 26 0.0 0.0 0.00 0.00 0.00 96 966.9
20260906091335 11 28 0.0 0.0 0.00 0.00 0.00 96 966.8
20260906090832 11 23 0.0 0.0 0.00 0.00 0.00 96 967.1
20260906090331 11 30 0.0 0.0 0.00 0.00 0.00 96 967.0
20260906085830 11 16 0.0 0.0 0.00 0.00 0.00 96 967.3
20260906085324 11 22 0.0 0.0 0.00 0.00 0.00 96 967.3
20260906084819 11 15 0.0 0.0 0.00 0.00 0.00 96 967.1
20260906084318 11 26 0.0 0.0 0.00 0.00 0.00 96 967.6
20260906083813 11 37 0.0 0.0 0.00 0.00 0.00 96 967.5
20260906083309 11 25 0.0 0.0 0.00 0.00 0.00 95 967.5
20260906082803 11 22 0.0 0.0 0.00 0.00 0.00 95 967.2
20260906082258 11 23 0.0 0.0 0.00 0.00 0.00 95 967.6
20260906081754 11 29 0.0 0.0 0.00 0.00 0.00 95 967.3
20260906081250 11 24 0.0 0.0 0.00 0.00 0.00 95 967.3
20260906080745 11 22 0.0 0.0 0.00 0.00 0.00 95 967.5
20260906080241 11 27 0.0 0.0 0.00 0.00 0.00 95 967.5
20260906075735 11 25 0.0 0.0 0.00 0.00 0.00 95 967.6
20260906075230 11 24 0.0 0.0 0.00 0.00 0.00 95 967.5
20260906074725 11 24 0.0 0.0 0.00 0.00 0.00 95 967.3
20260906074224 11 29 0.0 0.0 0.00 0.00 0.00 95 967.5
20260906073719 11 39 0.0 0.0 0.00 0.00 0.00 95 967.5
20260906073214 11 25 0.0 0.0 0.00 0.00 0.00 95 967.5
20260906072709 11 18 0.0 0.0 0.00 0.00 0.00 94 967.5
20260906072205 11 31 0.0 0.0 0.00 0.00 0.00 94 967.8
20260906071701 11 28 0.0 0.0 0.00 0.00 0.00 94 967.8
20260906071201 11 30 0.0 0.0 0.00 0.00 0.00 94 967.8
20260906070657 11 24 0.0 0.0 0.00 0.00 0.00 94 967.8
20260906070153 11 25 0.0 0.0 0.00 0.00 0.00 94 967.8
20260906065652 11 22 0.0 0.0 0.00 0.00 0.00 94 967.8
20260906065148 11 39 0.0 0.0 0.00 0.00 0.00 94 967.7
20260906064643 11 27 0.0 0.0 0.00 0.00 0.00 94 967.9
20260906064138 11 26 1.6 3.2 0.00 0.00 0.00 94 967.9
20260906063633 11 24 0.0 0.0 0.00 0.00 0.00 94 967.9
20260906063129 11 32 0.0 0.0 0.00 0.00 0.00 94 967.8
20260906062625 11 30 0.0 0.0 0.00 0.00 0.00 93 967.7
20260906062123 11 29 0.0 0.0 0.00 0.00 0.00 93 967.7
20260906061620 11 18 0.0 0.0 0.00 0.00 0.00 93 967.9
20260906061119 11 29 0.0 0.0 0.00 0.00 0.00 93 967.9
20260906060616 11 21 0.0 1.6 0.00 0.00 0.00 93 967.9
20260906060108 11 28 0.0 0.0 0.00 0.00 0.00 93 967.8
20260906055603 11 57 0.0 0.0 0.00 0.05 0.05 93 968.0
20260906055059 11 21 0.0 0.0 0.00 0.05 0.05 93 967.9
20260906054558 11 33 0.0 0.0 0.00 0.05 0.05 93 967.9
20260906054054 11 31 0.0 0.0 0.00 0.05 0.05 93 967.8
20260906053550 11 5 0.0 0.0 0.00 0.05 0.05 93 967.8
20260906053045 11 14 0.0 1.6 0.00 0.05 0.05 93 967.8
20260906052541 11 25 0.0 0.0 0.00 0.05 0.05 93 967.9
20260906052038 11 29 0.0 0.0 0.00 0.05 0.05 93 968.0
20260906051533 11 29 0.0 1.6 0.00 0.05 0.05 93 968.0
20260906051028 11 13 0.0 1.6 0.00 0.05 0.05 93 967.8
20260906050524 11 26 0.0 0.0 0.00 0.05 0.05 93 967.8
20260906050018 11 15 0.0 0.0 0.00 0.05 0.05 93 967.9
20260906045517 11 23 0.0 0.0 0.00 0.05 0.05 93 967.9
20260906045013 11 14 0.0 0.0 0.00 0.05 0.05 92 967.8
20260906044508 11 27 0.0 0.0 0.00 0.05 0.05 93 967.8
20260906044003 11 10 0.0 0.0 0.00 0.05 0.05 92 967.8
20260906043459 11 23 0.0 0.0 0.00 0.05 0.05 92 967.8
20260906042955 11 39 0.0 0.0 0.00 0.05 0.05 93 967.6
20260906042454 11 21 1.6 3.2 0.00 0.05 0.05 92 967.6
20260906041953 11 25 0.0 0.0 0.00 0.05 0.05 92 967.8
20260906041450 11 26 0.0 0.0 0.00 0.05 0.05 92 967.8
20260906040949 11 18 0.0 0.0 0.00 0.05 0.05 92 967.7
20260906040444 11 36 1.6 3.2 0.00 0.05 0.05 92 967.8
20260906035940 11 6 0.0 0.0 0.00 0.05 0.05 92 967.7
20260906035435 11 28 0.0 0.0 0.00 0.05 0.05 92 968.0
20260906034931 11 21 0.0 0.0 0.00 0.05 0.05 92 967.7
20260906034425 11 33 0.0 0.0 0.00 0.05 0.05 92 967.8
20260906033921 11 27 0.0 0.0 0.00 0.05 0.05 92 967.7
20260906033421 11 13 0.0 1.6 0.00 0.05 0.05 92 967.9
20260906032917 11 5 0.0 0.0 0.00 0.05 0.05 92 967.9
20260906032413 11 21 0.0 0.0 0.00 0.05 0.05 91 967.9
20260906031907 12 359 0.0 0.0 0.00 0.05 0.05 91 967.7
20260906031402 12 25 0.0 0.0 0.00 0.05 0.05 91 967.8
20260906030852 12 24 0.0 0.0 0.00 0.05 0.05 91 967.9
20260906030347 12 29 0.0 0.0 0.00 0.05 0.05 91 967.9
20260906025846 12 28 0.0 0.0 0.00 0.05 0.05 91 967.7
20260906025335 12 34 0.0 0.0 0.00 0.05 0.05 90 967.9
20260906024834 12 19 0.0 0.0 0.00 0.05 0.05 90 967.9
20260906024333 12 54 0.0 1.6 0.00 0.05 0.05 90 967.9
20260906023829 12 29 0.0 0.0 0.00 0.05 0.05 90 967.9
20260906023324 12 28 0.0 0.0 0.00 0.05 0.05 90 967.7
20260906022819 12 30 0.0 0.0 0.00 0.05 0.05 90 967.7
20260906022314 12 25 0.0 0.0 0.00 0.05 0.05 90 967.7
20260906021810 12 28 0.0 0.0 0.00 0.05 0.05 90 967.6
20260906021309 12 23 0.0 0.0 0.00 0.05 0.05 90 967.6
20260906020804 12 23 0.0 0.0 0.00 0.05 0.05 90 967.7
20260906020259 12 26 0.0 0.0 0.00 0.05 0.05 90 967.6
20260906015758 12 17 0.0 0.0 0.00 0.05 0.05 89 967.6
20260906015256 12 352 0.0 0.0 0.00 0.05 0.05 89 967.7
20260906014751 12 21 0.0 0.0 0.00 0.05 0.05 89 967.3
20260906014247 12 26 0.0 0.0 0.00 0.05 0.05 89 967.5
20260906013743 12 26 0.0 0.0 0.00 0.05 0.05 89 967.2
20260906013243 12 26 0.0 0.0 0.00 0.05 0.05 89 967.5
20260906012738 12 23 0.0 0.0 0.00 0.05 0.05 89 967.6
20260906012233 12 26 0.0 0.0 0.00 0.05 0.05 90 967.3
20260906011729 12 22 0.0 0.0 0.00 0.05 0.05 89 967.3
20260906011223 12 24 0.0 0.0 0.00 0.05 0.05 89 967.3
20260906010719 12 10 0.0 0.0 0.00 0.05 0.05 89 967.2
20260906010215 12 12 0.0 0.0 0.00 0.05 0.05 89 967.3
20260906005714 12 35 0.0 0.0 0.00 0.05 0.05 88 967.3
20260906005209 12 11 0.0 0.0 0.00 0.05 0.05 88 967.5
20260906004707 12 6 0.0 0.0 0.00 0.05 0.05 88 967.3
20260906004202 12 16 0.0 0.0 0.00 0.05 0.05 88 967.3
20260906003657 12 13 0.0 0.0 0.00 0.05 0.05 88 967.3
20260906003153 12 20 0.0 0.0 0.00 0.05 0.05 88 967.2
20260906002648 12 15 0.0 0.0 0.00 0.05 0.05 88 967.3
20260906002142 12 20 0.0 0.0 0.00 0.05 0.05 88 967.2
20260906001637 12 22 0.0 0.0 0.00 0.05 0.05 88 967.2
20260906001132 12 21 0.0 0.0 0.00 0.05 0.05 87 967.2
20260906000628 12 22 0.0 0.0 0.00 0.05 0.05 88 967.2
20260906000123 12 3 0.0 1.6 0.00 0.05 0.05 88 967.3
20260905235622 12 9 0.0 0.0 0.00 0.05 0.05 88 967.2
20260905235117 12 24 1.6 3.2 0.00 0.05 0.05 87 967.2